TimeEET,TemperatureF,Dew PointF,Humidity,Sea Level PressureIn,VisibilityMPH,Wind Direction,Wind SpeedMPH,Gust SpeedMPH,PrecipitationIn,Events,Conditions,WindDirDegrees,DateUTC
12:00 AM,42.8,15.8,34,30.15,-9999.0,Calm,Calm,-,N/A,,Clear,0,2013-01-20 22:00:00
2:00 AM,42.8,15.8,34,30.15,-9999.0,Calm,Calm,-,N/A,,Clear,0,2013-01-21 00:00:00
3:00 AM,42.8,15.8,34,30.15,-9999.0,Calm,Calm,-,N/A,,Clear,0,2013-01-21 01:00:00
4:00 AM,39.2,14.0,36,30.15,-9999.0,Calm,Calm,-,N/A,,Clear,0,2013-01-21 02:00:00
5:00 AM,39.2,14.0,36,30.15,-9999.0,Calm,Calm,-,N/A,,Clear,0,2013-01-21 03:00:00
6:00 AM,39.2,14.0,36,30.15,-9999.0,Calm,Calm,-,N/A,,Clear,0,2013-01-21 04:00:00
7:00 AM,35.6,10.4,35,30.15,-9999.0,Calm,Calm,-,N/A,,Clear,0,2013-01-21 05:00:00
8:00 AM,42.8,12.2,29,30.15,-9999.0,Calm,Calm,-,N/A,,Clear,0,2013-01-21 06:00:00
9:00 AM,53.6,15.8,22,30.15,-9999.0,Calm,Calm,-,N/A,,Clear,0,2013-01-21 07:00:00
10:00 AM,64.4,19.4,18,30.15,-9999.0,Calm,Calm,-,N/A,,Clear,0,2013-01-21 08:00:00
11:00 AM,68.0,17.6,15,30.15,-9999.0,SE,3.5,-,N/A,,Clear,130,2013-01-21 09:00:00
12:00 PM,69.8,15.8,13,30.12,-9999.0,SE,3.5,-,N/A,,Clear,140,2013-01-21 10:00:00
2:00 PM,71.6,14.0,11,30.09,-9999.0,ESE,8.1,-,N/A,,Clear,120,2013-01-21 12:00:00
3:00 PM,71.6,15.8,12,30.09,-9999.0,SE,5.8,-,N/A,,Clear,130,2013-01-21 13:00:00
4:00 PM,69.8,17.6,14,30.09,-9999.0,SE,8.1,-,N/A,,Clear,130,2013-01-21 14:00:00
6:00 PM,64.4,17.6,16,30.09,-9999.0,Calm,Calm,-,N/A,,Clear,0,2013-01-21 16:00:00
7:00 PM,59.0,17.6,20,30.09,-9999.0,Calm,Calm,-,N/A,,Clear,0,2013-01-21 17:00:00
8:00 PM,55.4,17.6,23,30.12,-9999.0,Calm,Calm,-,N/A,,Clear,0,2013-01-21 18:00:00
9:00 PM,53.6,15.8,22,30.12,-9999.0,Calm,Calm,-,N/A,,Clear,0,2013-01-21 19:00:00
10:00 PM,50.0,15.8,26,30.12,-9999.0,Calm,Calm,-,N/A,,Clear,0,2013-01-21 20:00:00
11:00 PM,51.8,17.6,26,30.12,-9999.0,Calm,Calm,-,N/A,,Clear,0,2013-01-21 21:00:00